Вернуться в каталог

STARLINK-1209

АктивенСвязьVLEO
NORAD 45206·PAYLOAD·🇺🇸 United States

Запущен Feb 17, 2020 с Cape Canaveral Space Force Station

Loading…

Ближайшие Пролёты (ближайшие 24 часа)

TLE

СвежийSource: CelesTrak SupGP

Эпоха: Sep 14, 2026, 20:24 UTC

1 45206C 20012AE  26257.85048611  .00080261  00000+0  33338-3 0  2573
2 45206  53.0268 120.7431 0004582 131.9150 188.2414 15.84984944    15

Отслеживайте STARLINK-1209 в реальном времени с AllMySat

Download on the App Store